JAL148 ROAH-VHHH

Flight info

Callsign JAL148
Flight time 2h 12m
Altitude 40000
Route GANJU Y576 LILRA Y573 SEDKU R595 APU A1 ELATO V522 ABBEY
Aircraft A343/H-SDE2E3FGHIJ4J5M1RWXY/LB1D1

Departure

Time 2026-04-22 17:19
Airport Naha International Airport (ROAH)

Arrival

Time 2026-04-22 19:32
Airport Hong Kong International Airport (VHHH)
Time Latitude Longitude Altitude Speed Heading
2026-04-22 17:09 26.20830 127.64852 26 ft 0 kts 133°
2026-04-22 17:11 26.20833 127.64849 26 ft 2 kts 131°
2026-04-22 17:11 26.20840 127.64833 32 ft 2 kts 116°
2026-04-22 17:11 26.20844 127.64815 30 ft 2 kts 90°
2026-04-22 17:11 26.20843 127.64801 32 ft 2 kts 72°
2026-04-22 17:12 26.20837 127.64784 32 ft 2 kts 61°
2026-04-22 17:12 26.20829 127.64768 32 ft 2 kts 53°
2026-04-22 17:12 26.20819 127.64754 30 ft 2 kts 42°
2026-04-22 17:12 26.20806 127.64743 32 ft 2 kts 359°
2026-04-22 17:13 26.20804 127.64743 31 ft 0 kts
2026-04-22 17:14 26.20805 127.64743 32 ft 0 kts
2026-04-22 17:16 26.20807 127.64743 32 ft 1 kts
2026-04-22 17:16 26.20840 127.64742 31 ft 7 kts 358°
2026-04-22 17:16 26.20906 127.64740 29 ft 11 kts 357°
2026-04-22 17:17 26.20971 127.64698 30 ft 11 kts 298°
2026-04-22 17:17 26.20976 127.64613 26 ft 11 kts 256°
2026-04-22 17:17 26.20934 127.64544 27 ft 11 kts 208°
2026-04-22 17:17 26.20868 127.64535 28 ft 6 kts 179°
2026-04-22 17:18 26.20866 127.64535 28 ft 0 kts 179°
2026-04-22 17:18 26.20841 127.64536 28 ft 19 kts 179°
2026-04-22 17:18 26.20486 127.64554 28 ft 82 kts 178°
2026-04-22 17:18 26.19734 127.64588 27 ft 132 kts 178°
2026-04-22 17:19 26.17679 127.64709 916 ft 153 kts 180°
2026-04-22 17:19 26.15455 127.64795 2134 ft 171 kts 181°
2026-04-22 17:20 26.12853 127.64854 3301 ft 203 kts 188°
2026-04-22 17:20 26.09981 127.63882 4492 ft 235 kts 203°
2026-04-22 17:21 26.08388 127.63241 5117 ft 250 kts 202°
2026-04-22 17:21 26.05586 127.62245 6553 ft 258 kts 200°
2026-04-22 17:22 26.01493 127.60881 8504 ft 270 kts 200°
2026-04-22 17:22 25.99670 127.60259 9310 ft 276 kts 200°
2026-04-22 17:22 25.96644 127.58945 10490 ft 286 kts 213°
2026-04-22 17:23 25.95055 127.57521 10830 ft 303 kts 228°
2026-04-22 17:23 25.92228 127.53722 11589 ft 333 kts 232°
2026-04-22 17:23 25.90762 127.51695 12205 ft 339 kts 232°
2026-04-22 17:24 25.89274 127.49652 12889 ft 342 kts 232°
2026-04-22 17:24 25.87784 127.47616 13625 ft 345 kts 232°
2026-04-22 17:24 25.86267 127.45548 14295 ft 347 kts 232°
2026-04-22 17:24 25.84743 127.43454 14898 ft 350 kts 234°
2026-04-22 17:25 25.83380 127.41200 15519 ft 353 kts 242°
2026-04-22 17:25 25.82375 127.38709 16142 ft 355 kts 252°
2026-04-22 17:25 25.81795 127.36048 16797 ft 357 kts 262°
2026-04-22 17:25 25.81662 127.33288 17443 ft 360 kts 271°
2026-04-22 17:26 25.81861 127.30506 18107 ft 363 kts 275°
2026-04-22 17:26 25.82134 127.27709 18671 ft 366 kts 275°
2026-04-22 17:26 25.82410 127.24885 19215 ft 369 kts 275°
2026-04-22 17:26 25.82683 127.22028 19769 ft 372 kts 275°
2026-04-22 17:27 25.82953 127.19162 20326 ft 375 kts 275°
2026-04-22 17:27 25.83219 127.16310 20852 ft 378 kts 275°
2026-04-22 17:27 25.83489 127.13396 21359 ft 381 kts 275°
2026-04-22 17:27 25.83761 127.10458 21880 ft 384 kts 275°
2026-04-22 17:28 25.84034 127.07489 22402 ft 387 kts 275°
2026-04-22 17:28 25.84307 127.04516 22917 ft 390 kts 274°
2026-04-22 17:28 25.84582 127.01509 23400 ft 393 kts 274°
2026-04-22 17:28 25.84859 126.98479 23808 ft 396 kts 274°
2026-04-22 17:29 25.85136 126.95435 24200 ft 399 kts 274°
2026-04-22 17:29 25.85413 126.92383 24615 ft 401 kts 275°
2026-04-22 17:29 25.85694 126.89288 25025 ft 404 kts 275°
2026-04-22 17:29 25.85883 126.87193 25300 ft 405 kts 275°
2026-04-22 17:30 25.86070 126.85131 25588 ft 404 kts 275°
2026-04-22 17:30 25.86350 126.82012 25922 ft 407 kts 275°
2026-04-22 17:30 25.86620 126.78865 26273 ft 411 kts 273°
2026-04-22 17:31 25.86663 126.75679 26661 ft 413 kts 266°
2026-04-22 17:31 25.86290 126.72505 27066 ft 416 kts 258°
2026-04-22 17:31 25.85474 126.69417 27470 ft 419 kts 250°
2026-04-22 17:31 25.84259 126.66500 27859 ft 424 kts 245°
2026-04-22 17:32 25.82848 126.63607 28192 ft 427 kts 243°
2026-04-22 17:32 25.81371 126.60738 28549 ft 430 kts 242°
2026-04-22 17:32 25.79859 126.57858 28904 ft 432 kts 242°
2026-04-22 17:32 25.78336 126.54964 29250 ft 435 kts 242°
2026-04-22 17:33 25.76816 126.52060 29593 ft 437 kts 243°
2026-04-22 17:33 25.75293 126.49131 29920 ft 439 kts 243°
2026-04-22 17:33 25.73765 126.46179 30139 ft 443 kts 243°
2026-04-22 17:33 25.72229 126.43203 30411 ft 445 kts 243°
2026-04-22 17:34 25.70695 126.40227 30703 ft 446 kts 243°
2026-04-22 17:34 25.69146 126.37222 30998 ft 448 kts 243°
2026-04-22 17:34 25.67597 126.34217 31260 ft 450 kts 243°
2026-04-22 17:34 25.66063 126.31247 31629 ft 448 kts 243°
2026-04-22 17:35 25.64495 126.28216 32034 ft 447 kts 243°
2026-04-22 17:35 25.62971 126.25271 32411 ft 446 kts 243°
2026-04-22 17:35 25.61433 126.22302 32813 ft 443 kts 243°
2026-04-22 17:35 25.59900 126.19342 33212 ft 442 kts 243°
2026-04-22 17:36 25.58370 126.16393 33518 ft 441 kts 244°
2026-04-22 17:36 25.56843 126.13445 33788 ft 442 kts 244°
2026-04-22 17:36 25.55311 126.10492 34102 ft 441 kts 244°
2026-04-22 17:36 25.53784 126.07550 34423 ft 440 kts 244°
2026-04-22 17:37 25.52261 126.04619 34737 ft 438 kts 244°
2026-04-22 17:37 25.50741 126.01696 35050 ft 436 kts 244°
2026-04-22 17:37 25.49228 125.98788 35346 ft 435 kts 244°
2026-04-22 17:37 25.47718 125.95887 35637 ft 434 kts 244°
2026-04-22 17:38 25.46215 125.93001 35907 ft 433 kts 244°
2026-04-22 17:38 25.44712 125.90118 36195 ft 432 kts 244°
2026-04-22 17:38 25.43214 125.87245 36469 ft 431 kts 244°
2026-04-22 17:38 25.41711 125.84378 36670 ft 431 kts 244°
2026-04-22 17:39 25.40206 125.81497 36861 ft 432 kts 244°
2026-04-22 17:39 25.38724 125.78659 37123 ft 431 kts 244°
2026-04-22 17:39 25.35715 125.72902 37683 ft 428 kts 244°
2026-04-22 17:40 25.34241 125.70097 37973 ft 427 kts 244°
2026-04-22 17:40 25.32739 125.67267 38238 ft 426 kts 244°
2026-04-22 17:40 25.31239 125.64454 38478 ft 425 kts 244°
2026-04-22 17:40 25.29736 125.61638 38678 ft 424 kts 244°
2026-04-22 17:41 25.28235 125.58830 38857 ft 424 kts 244°
2026-04-22 17:41 25.26736 125.56025 39011 ft 424 kts 244°
2026-04-22 17:41 25.25236 125.53218 39123 ft 425 kts 244°
2026-04-22 17:41 25.23733 125.50402 39224 ft 426 kts 244°
2026-04-22 17:42 25.22226 125.47583 39385 ft 426 kts 244°
2026-04-22 17:42 25.20721 125.44771 39566 ft 425 kts 244°
2026-04-22 17:42 25.19218 125.41964 39731 ft 425 kts 244°
2026-04-22 17:42 25.17712 125.39153 39836 ft 426 kts 244°
2026-04-22 17:43 25.16199 125.36327 39847 ft 429 kts 244°
2026-04-22 17:43 25.13156 125.30653 39843 ft 428 kts 244°
2026-04-22 17:44 25.10051 125.25052 39847 ft 430 kts 239°
2026-04-22 17:44 25.06533 125.19703 39848 ft 431 kts 238°
2026-04-22 17:45 25.02955 125.14434 39849 ft 432 kts 238°
2026-04-22 17:45 24.99314 125.09105 39851 ft 432 kts 238°
2026-04-22 17:46 24.95567 125.03951 39851 ft 434 kts 235°
2026-04-22 17:46 24.91704 124.98837 39852 ft 434 kts 235°
2026-04-22 17:47 24.87882 124.93686 39842 ft 433 kts 238°
2026-04-22 17:47 24.85029 124.87951 39847 ft 424 kts 253°
2026-04-22 17:48 24.83947 124.82744 39843 ft 419 kts 267°
2026-04-22 17:48 24.84295 124.75301 39840 ft 417 kts 277°
2026-04-22 17:49 24.85083 124.68964 39830 ft 418 kts 278°
2026-04-22 17:49 24.85898 124.62633 39839 ft 418 kts 278°
2026-04-22 17:50 24.86681 124.56287 39843 ft 418 kts 278°
2026-04-22 17:50 24.87443 124.49947 39837 ft 418 kts 277°
2026-04-22 17:51 24.88198 124.43597 39834 ft 418 kts 277°
2026-04-22 17:51 24.88947 124.37293 39828 ft 418 kts 277°
2026-04-22 17:52 24.89699 124.30946 39822 ft 418 kts 277°
2026-04-22 17:52 24.90448 124.24597 39826 ft 418 kts 277°
2026-04-22 17:53 24.91196 124.18236 39820 ft 419 kts 277°
2026-04-22 17:53 24.91942 124.11872 39826 ft 419 kts 277°
2026-04-22 17:54 24.92686 124.05491 39825 ft 420 kts 277°
2026-04-22 17:54 24.93428 123.99117 39816 ft 420 kts 277°
2026-04-22 17:55 24.94015 123.93808 39811 ft 420 kts 276°
2026-04-22 17:55 24.94792 123.86322 39815 ft 422 kts 276°
2026-04-22 17:56 24.95461 123.79889 39807 ft 422 kts 277°
2026-04-22 17:56 24.96129 123.73506 39815 ft 421 kts 277°
2026-04-22 17:57 24.96801 123.67104 39811 ft 421 kts 276°
2026-04-22 17:57 24.97471 123.60692 39815 ft 422 kts 276°
2026-04-22 17:58 24.98139 123.54256 39816 ft 422 kts 276°
2026-04-22 17:58 24.98805 123.47824 39815 ft 422 kts 276°
2026-04-22 17:59 24.99467 123.41391 39812 ft 422 kts 276°
2026-04-22 17:59 25.00124 123.34994 39809 ft 422 kts 276°
2026-04-22 18:00 25.00674 123.29608 39809 ft 422 kts 276°
2026-04-22 18:00 25.01434 123.22140 39815 ft 422 kts 276°
2026-04-22 18:01 25.02088 123.15703 39813 ft 422 kts 276°
2026-04-22 18:01 25.02734 123.09275 39809 ft 420 kts 276°
2026-04-22 18:02 25.03372 123.02877 39811 ft 420 kts 276°
2026-04-22 18:02 25.04013 122.96478 39809 ft 420 kts 276°
2026-04-22 18:03 25.04651 122.90073 39810 ft 420 kts 276°
2026-04-22 18:03 25.05278 122.83727 39810 ft 417 kts 276°
2026-04-22 18:04 25.05903 122.77395 39811 ft 414 kts 276°
2026-04-22 18:04 25.06524 122.71080 39812 ft 414 kts 276°
2026-04-22 18:05 25.07143 122.64764 39813 ft 414 kts 276°
2026-04-22 18:05 25.07758 122.58445 39810 ft 412 kts 276°
2026-04-22 18:06 25.08361 122.52238 39806 ft 407 kts 276°
2026-04-22 18:06 25.08962 122.46028 39807 ft 407 kts 276°
2026-04-22 18:07 25.09463 122.40817 39804 ft 407 kts 276°
2026-04-22 18:07 25.10156 122.33599 39799 ft 407 kts 276°
2026-04-22 18:08 25.10757 122.27382 39805 ft 408 kts 276°
2026-04-22 18:08 25.11297 122.21137 39804 ft 408 kts 275°
2026-04-22 18:09 25.11801 122.14907 39807 ft 408 kts 275°
2026-04-22 18:09 25.12309 122.08718 39807 ft 408 kts 275°
2026-04-22 18:10 25.12830 122.02493 39804 ft 408 kts 276°
2026-04-22 18:10 25.13380 121.96273 39807 ft 406 kts 276°
2026-04-22 18:11 25.13993 121.90082 39807 ft 406 kts 276°
2026-04-22 18:11 25.14616 121.83884 39808 ft 406 kts 276°
2026-04-22 18:12 25.15227 121.77687 39807 ft 406 kts 276°
2026-04-22 18:12 25.15729 121.72516 39810 ft 408 kts 276°
2026-04-22 18:13 25.16329 121.66279 39816 ft 409 kts 276°
2026-04-22 18:13 25.16863 121.60028 39812 ft 409 kts 272°
2026-04-22 18:14 25.16308 121.53794 39812 ft 411 kts 258°
2026-04-22 18:14 25.14108 121.47944 39811 ft 418 kts 242°
2026-04-22 18:15 25.10575 121.42832 39815 ft 424 kts 235°
2026-04-22 18:15 25.06717 121.37883 39813 ft 426 kts 234°
2026-04-22 18:16 25.02835 121.32955 39790 ft 425 kts 234°
2026-04-22 18:16 24.98964 121.27989 39813 ft 427 kts 234°
2026-04-22 18:17 24.95101 121.23002 39816 ft 428 kts 234°
2026-04-22 18:17 24.91242 121.18019 39813 ft 427 kts 234°
2026-04-22 18:18 24.87386 121.13047 39812 ft 426 kts 234°
2026-04-22 18:18 24.83527 121.08080 39824 ft 426 kts 234°
2026-04-22 18:19 24.79691 121.03155 39826 ft 427 kts 234°
2026-04-22 18:19 24.75836 120.98188 39849 ft 427 kts 234°
2026-04-22 18:20 24.71976 120.93233 39836 ft 425 kts 234°
2026-04-22 18:20 24.68132 120.88306 39835 ft 424 kts 234°
2026-04-22 18:21 24.64302 120.83397 39838 ft 424 kts 234°
2026-04-22 18:21 24.60460 120.78475 39843 ft 424 kts 234°
2026-04-22 18:22 24.56594 120.73526 39851 ft 428 kts 234°
2026-04-22 18:22 24.52598 120.68646 39864 ft 431 kts 231°
2026-04-22 18:23 24.48391 120.63942 39865 ft 431 kts 230°
2026-04-22 18:23 24.44212 120.59278 39870 ft 431 kts 231°
2026-04-22 18:24 24.37958 120.52189 39887 ft 432 kts 231°
2026-04-22 18:25 24.31681 120.45040 39869 ft 434 kts 231°
2026-04-22 18:25 24.27492 120.40280 39865 ft 434 kts 231°
2026-04-22 18:26 24.21212 120.33155 39865 ft 433 kts 231°
2026-04-22 18:26 24.17022 120.28415 39854 ft 433 kts 230°
2026-04-22 18:27 24.12849 120.23686 39866 ft 435 kts 231°
2026-04-22 18:27 24.08646 120.18927 39868 ft 435 kts 230°
2026-04-22 18:28 24.04434 120.14165 39860 ft 435 kts 230°
2026-04-22 18:28 24.00223 120.09413 39876 ft 435 kts 230°
2026-04-22 18:29 23.96013 120.04675 39851 ft 434 kts 230°
2026-04-22 18:29 23.91802 119.99928 39861 ft 437 kts 230°
2026-04-22 18:30 23.85443 119.92771 39860 ft 438 kts 230°
2026-04-22 18:31 23.81197 119.88002 39867 ft 438 kts 230°
2026-04-22 18:31 23.76973 119.83261 39860 ft 438 kts 230°
2026-04-22 18:32 23.74824 119.80846 39874 ft 437 kts 231°
2026-04-22 18:32 23.71284 119.76873 39869 ft 437 kts 230°
2026-04-22 18:33 23.67055 119.72130 39875 ft 438 kts 230°
2026-04-22 18:33 23.62797 119.67368 39877 ft 439 kts 230°
2026-04-22 18:34 23.58847 119.62358 39880 ft 433 kts 240°
2026-04-22 18:34 23.55536 119.56893 39877 ft 432 kts 241°
2026-04-22 18:35 23.52331 119.51344 39882 ft 431 kts 242°
2026-04-22 18:35 23.49151 119.45813 39872 ft 431 kts 242°
2026-04-22 18:36 23.45954 119.40287 39871 ft 431 kts 242°
2026-04-22 18:36 23.42770 119.34807 39866 ft 431 kts 242°
2026-04-22 18:37 23.39560 119.29293 39863 ft 431 kts 242°
2026-04-22 18:37 23.36892 119.24713 39865 ft 431 kts 242°
2026-04-22 18:38 23.33141 119.18282 39862 ft 430 kts 242°
2026-04-22 18:38 23.29938 119.12795 39855 ft 430 kts 242°
2026-04-22 18:39 23.25116 119.04545 39859 ft 431 kts 242°
2026-04-22 18:39 23.21892 118.99038 39859 ft 431 kts 242°
2026-04-22 18:40 23.18674 118.93546 39859 ft 431 kts 242°
2026-04-22 18:40 23.15468 118.88082 39856 ft 431 kts 242°
2026-04-22 18:41 23.12219 118.82550 39860 ft 431 kts 242°
2026-04-22 18:41 23.09010 118.77090 39848 ft 432 kts 242°
2026-04-22 18:42 23.05770 118.71586 39854 ft 433 kts 242°
2026-04-22 18:42 23.02530 118.66086 39861 ft 433 kts 242°
2026-04-22 18:43 22.99284 118.60583 39858 ft 433 kts 242°
2026-04-22 18:43 22.96033 118.55076 39857 ft 433 kts 242°
2026-04-22 18:44 22.92769 118.49577 39856 ft 433 kts 241°
2026-04-22 18:44 22.89504 118.44090 39855 ft 433 kts 241°
2026-04-22 18:45 22.86235 118.38602 39852 ft 433 kts 241°
2026-04-22 18:45 22.82965 118.33116 39855 ft 433 kts 241°
2026-04-22 18:46 22.79707 118.27658 39855 ft 433 kts 241°
2026-04-22 18:46 22.76432 118.22177 39857 ft 433 kts 241°
2026-04-22 18:47 22.73153 118.16694 39855 ft 433 kts 241°
2026-04-22 18:47 22.69874 118.11217 39858 ft 433 kts 241°
2026-04-22 18:48 22.66589 118.05737 39857 ft 433 kts 241°
2026-04-22 18:48 22.63330 118.00305 39859 ft 433 kts 241°
2026-04-22 18:49 22.60046 117.94836 39856 ft 432 kts 241°
2026-04-22 18:49 22.56788 117.89367 39857 ft 432 kts 242°
2026-04-22 18:50 22.53541 117.83889 39857 ft 432 kts 242°
2026-04-22 18:50 22.50293 117.78421 39855 ft 432 kts 242°
2026-04-22 18:51 22.47035 117.72949 39856 ft 432 kts 242°
2026-04-22 18:51 22.43786 117.67499 39851 ft 433 kts 241°
2026-04-22 18:52 22.40513 117.62016 39867 ft 433 kts 241°
2026-04-22 18:52 22.37243 117.56543 39850 ft 433 kts 241°
2026-04-22 18:53 22.34461 117.50831 39853 ft 427 kts 253°
2026-04-22 18:53 22.33269 117.44669 39858 ft 421 kts 268°
2026-04-22 18:54 22.33042 117.38353 39853 ft 421 kts 270°
2026-04-22 18:54 22.32971 117.32021 39855 ft 421 kts 271°
2026-04-22 18:55 22.32893 117.25704 39856 ft 421 kts 270°
2026-04-22 18:55 22.32786 117.19359 39849 ft 421 kts 270°
2026-04-22 18:56 22.32665 117.13037 39849 ft 421 kts 270°
2026-04-22 18:56 22.32541 117.06743 39857 ft 422 kts 270°
2026-04-22 18:57 22.32414 117.00411 39856 ft 422 kts 270°
2026-04-22 18:57 22.32286 116.94069 39855 ft 422 kts 270°
2026-04-22 18:58 22.32156 116.87733 39852 ft 422 kts 270°
2026-04-22 18:58 22.32022 116.81395 39849 ft 422 kts 270°
2026-04-22 18:59 22.31886 116.75046 39848 ft 424 kts 270°
2026-04-22 18:59 22.31745 116.68667 39848 ft 425 kts 270°
2026-04-22 19:00 22.31603 116.62279 39847 ft 425 kts 270°
2026-04-22 19:00 22.31458 116.55933 39788 ft 425 kts 270°
2026-04-22 19:01 22.31384 116.52750 39539 ft 423 kts 270°
2026-04-22 19:01 22.31310 116.49573 39176 ft 422 kts 270°
2026-04-22 19:01 22.31235 116.46404 38811 ft 423 kts 270°
2026-04-22 19:01 22.31161 116.43223 38377 ft 424 kts 270°
2026-04-22 19:02 22.31085 116.40032 37861 ft 426 kts 270°
2026-04-22 19:02 22.31009 116.36826 37367 ft 428 kts 270°
2026-04-22 19:02 22.30932 116.33605 36890 ft 430 kts 270°
2026-04-22 19:02 22.30854 116.30373 36410 ft 432 kts 270°
2026-04-22 19:03 22.30801 116.28219 36106 ft 434 kts 270°
2026-04-22 19:03 22.30721 116.24955 35654 ft 436 kts 270°
2026-04-22 19:03 22.30639 116.21671 35214 ft 438 kts 269°
2026-04-22 19:03 22.30557 116.18377 34768 ft 440 kts 269°
2026-04-22 19:04 22.30473 116.15073 34338 ft 442 kts 269°
2026-04-22 19:04 22.30388 116.11747 33908 ft 444 kts 269°
2026-04-22 19:04 22.30302 116.08404 33431 ft 446 kts 269°
2026-04-22 19:04 22.30215 116.05043 32951 ft 448 kts 269°
2026-04-22 19:05 22.30127 116.01680 32451 ft 449 kts 269°
2026-04-22 19:05 22.30039 115.98307 31964 ft 451 kts 269°
2026-04-22 19:05 22.29949 115.94912 31489 ft 452 kts 269°
2026-04-22 19:05 22.29858 115.91519 31019 ft 452 kts 269°
2026-04-22 19:06 22.29767 115.88133 30555 ft 449 kts 269°
2026-04-22 19:06 22.29676 115.84777 30102 ft 446 kts 269°
2026-04-22 19:06 22.29585 115.81442 29607 ft 442 kts 269°
2026-04-22 19:07 22.29413 115.74898 28552 ft 435 kts 269°
2026-04-22 19:07 22.29327 115.71646 28047 ft 431 kts 269°
2026-04-22 19:07 22.29240 115.68420 27551 ft 428 kts 269°
2026-04-22 19:07 22.29151 115.65227 27062 ft 424 kts 269°
2026-04-22 19:08 22.29064 115.62053 26577 ft 421 kts 269°
2026-04-22 19:08 22.28979 115.58912 26103 ft 417 kts 269°
2026-04-22 19:08 22.28895 115.55800 25637 ft 413 kts 269°
2026-04-22 19:08 22.28810 115.52710 25106 ft 410 kts 268°
2026-04-22 19:09 22.28725 115.49643 24533 ft 408 kts 268°
2026-04-22 19:09 22.28639 115.46593 23965 ft 406 kts 268°
2026-04-22 19:09 22.28553 115.43552 23383 ft 404 kts 268°
2026-04-22 19:09 22.28467 115.40527 22742 ft 402 kts 268°
2026-04-22 19:10 22.28381 115.37522 22167 ft 399 kts 268°
2026-04-22 19:10 22.28295 115.34544 21600 ft 395 kts 268°
2026-04-22 19:10 22.28211 115.31587 21040 ft 392 kts 268°
2026-04-22 19:10 22.28123 115.28654 20497 ft 389 kts 268°
2026-04-22 19:11 22.28032 115.25738 19937 ft 387 kts 268°
2026-04-22 19:11 22.27941 115.22840 19397 ft 385 kts 268°
2026-04-22 19:11 22.27851 115.19968 18850 ft 383 kts 268°
2026-04-22 19:11 22.27762 115.17097 18306 ft 381 kts 268°
2026-04-22 19:12 22.27672 115.14240 17705 ft 380 kts 268°
2026-04-22 19:12 22.27584 115.11439 17144 ft 377 kts 268°
2026-04-22 19:12 22.27495 115.08628 16594 ft 374 kts 268°
2026-04-22 19:12 22.27407 115.05833 16047 ft 371 kts 268°
2026-04-22 19:13 22.27318 115.03066 15502 ft 368 kts 268°
2026-04-22 19:13 22.27230 115.00316 14957 ft 365 kts 268°
2026-04-22 19:13 22.27142 114.97578 14417 ft 362 kts 268°
2026-04-22 19:13 22.27054 114.94870 13884 ft 360 kts 268°
2026-04-22 19:14 22.26966 114.92176 13328 ft 357 kts 268°
2026-04-22 19:14 22.26883 114.89523 12916 ft 351 kts 268°
2026-04-22 19:14 22.26796 114.86905 12415 ft 347 kts 267°
2026-04-22 19:14 22.26709 114.84297 11761 ft 348 kts 267°
2026-04-22 19:15 22.26651 114.82570 11383 ft 347 kts 267°
2026-04-22 19:15 22.26529 114.79148 10814 ft 339 kts 265°
2026-04-22 19:15 22.26213 114.76652 10689 ft 324 kts 258°
2026-04-22 19:15 22.25766 114.74321 10497 ft 314 kts 257°
2026-04-22 19:16 22.25307 114.72034 10242 ft 317 kts 257°
2026-04-22 19:16 22.24841 114.69713 10031 ft 314 kts 257°
2026-04-22 19:16 22.24385 114.67432 9772 ft 306 kts 257°
2026-04-22 19:16 22.23944 114.65221 9573 ft 295 kts 257°
2026-04-22 19:17 22.23521 114.63099 9360 ft 283 kts 257°
2026-04-22 19:17 22.23115 114.61061 9061 ft 273 kts 257°
2026-04-22 19:17 22.22720 114.59083 8540 ft 265 kts 257°
2026-04-22 19:17 22.22331 114.57135 8244 ft 268 kts 257°
2026-04-22 19:18 22.21939 114.55173 7985 ft 266 kts 257°
2026-04-22 19:18 22.21551 114.53228 7707 ft 266 kts 257°
2026-04-22 19:18 22.21161 114.51277 7442 ft 264 kts 258°
2026-04-22 19:18 22.20776 114.49351 7182 ft 263 kts 257°
2026-04-22 19:19 22.20387 114.47408 6936 ft 264 kts 258°
2026-04-22 19:19 22.20002 114.45483 6684 ft 263 kts 258°
2026-04-22 19:19 22.19638 114.43577 6419 ft 263 kts 261°
2026-04-22 19:19 22.19649 114.41616 6159 ft 261 kts 282°
2026-04-22 19:20 22.20434 114.39856 5944 ft 264 kts 308°
2026-04-22 19:20 22.21900 114.38641 5895 ft 271 kts 332°
2026-04-22 19:20 22.23667 114.37905 5848 ft 273 kts 338°
2026-04-22 19:20 22.25469 114.37266 5745 ft 271 kts 339°
2026-04-22 19:21 22.27270 114.36628 5506 ft 272 kts 338°
2026-04-22 19:21 22.29060 114.35984 5295 ft 270 kts 338°
2026-04-22 19:21 22.30837 114.35338 5063 ft 270 kts 338°
2026-04-22 19:21 22.32616 114.34686 4942 ft 271 kts 338°
2026-04-22 19:22 22.34387 114.34036 4811 ft 268 kts 338°
2026-04-22 19:22 22.36155 114.33385 4737 ft 266 kts 338°
2026-04-22 19:22 22.37875 114.32753 4642 ft 256 kts 338°
2026-04-22 19:22 22.39515 114.32088 4524 ft 244 kts 327°
2026-04-22 19:23 22.40585 114.30817 4493 ft 222 kts 289°
2026-04-22 19:23 22.40879 114.29258 4498 ft 208 kts 276°
2026-04-22 19:23 22.41043 114.27760 4508 ft 195 kts 276°
2026-04-22 19:23 22.41228 114.26338 4495 ft 190 kts 277°
2026-04-22 19:24 22.41437 114.24937 4481 ft 188 kts 279°
2026-04-22 19:24 22.41581 114.23538 4498 ft 188 kts 264°
2026-04-22 19:24 22.41343 114.22154 4444 ft 189 kts 255°
2026-04-22 19:24 22.40958 114.20803 4316 ft 187 kts 252°
2026-04-22 19:25 22.40539 114.19468 4316 ft 187 kts 252°
2026-04-22 19:25 22.40115 114.18139 4302 ft 188 kts 252°
2026-04-22 19:25 22.39691 114.16799 4298 ft 189 kts 252°
2026-04-22 19:25 22.39265 114.15445 4233 ft 189 kts 252°
2026-04-22 19:26 22.38843 114.14102 4035 ft 188 kts 251°
2026-04-22 19:26 22.38418 114.12769 3802 ft 187 kts 251°
2026-04-22 19:26 22.37999 114.11460 3544 ft 181 kts 251°
2026-04-22 19:26 22.37601 114.10211 3268 ft 169 kts 250°
2026-04-22 19:27 22.37239 114.09074 3043 ft 152 kts 251°
2026-04-22 19:27 22.36911 114.08046 2842 ft 139 kts 251°
2026-04-22 19:27 22.36607 114.07093 2678 ft 131 kts 250°
2026-04-22 19:27 22.36312 114.06167 2512 ft 132 kts 250°
2026-04-22 19:28 22.36008 114.05215 2344 ft 132 kts 249°
2026-04-22 19:28 22.35713 114.04291 2177 ft 132 kts 249°
2026-04-22 19:28 22.35415 114.03358 2002 ft 131 kts 250°
2026-04-22 19:28 22.35118 114.02424 1826 ft 131 kts 250°
2026-04-22 19:29 22.34866 114.01636 1686 ft 131 kts 249°
2026-04-22 19:29 22.34572 114.00708 1525 ft 131 kts 250°
2026-04-22 19:29 22.34291 113.99763 1356 ft 133 kts 251°
2026-04-22 19:29 22.34014 113.98811 1205 ft 133 kts 250°
2026-04-22 19:30 22.33815 113.98185 1066 ft 134 kts 248°
2026-04-22 19:30 22.33390 113.96914 859 ft 135 kts 251°
2026-04-22 19:30 22.33095 113.95949 655 ft 134 kts 250°
2026-04-22 19:30 22.32791 113.95010 500 ft 132 kts 248°
2026-04-22 19:31 22.32477 113.94063 320 ft 136 kts 249°
2026-04-22 19:31 22.32164 113.93085 93 ft 136 kts 249°
2026-04-22 19:31 22.31866 113.92183 37 ft 111 kts 250°
2026-04-22 19:31 22.31673 113.91588 36 ft 58 kts 250°
2026-04-22 19:32 22.31568 113.91272 36 ft 34 kts 246°
2026-04-22 19:32 22.31442 113.91082 36 ft 20 kts 222°
2026-04-22 19:32 22.31402 113.91045 36 ft 1 kts 220°
2026-04-22 19:32 22.31401 113.91045 36 ft 0 kts 219°
2026-04-22 19:34 22.31397 113.91041 36 ft 4 kts 216°
2026-04-22 19:35 22.31349 113.91041 35 ft 9 kts 161°
2026-04-22 19:35 22.31331 113.91103 35 ft 11 kts 79°
2026-04-22 19:35 22.31348 113.91162 35 ft 14 kts 71°
2026-04-22 19:35 22.31399 113.91320 36 ft 20 kts 71°
2026-04-22 19:36 22.31450 113.91481 35 ft 25 kts 71°
2026-04-22 19:36 22.31510 113.91664 35 ft 27 kts 70°
2026-04-22 19:36 22.31574 113.91857 34 ft 28 kts 71°
2026-04-22 19:36 22.31619 113.92002 34 ft 17 kts 71°
2026-04-22 19:37 22.31663 113.92140 34 ft 21 kts 70°
2026-04-22 19:37 22.31716 113.92303 35 ft 23 kts 70°
2026-04-22 19:37 22.31717 113.92415 35 ft 14 kts 138°
2026-04-22 19:37 22.31632 113.92467 35 ft 15 kts 137°
2026-04-22 19:38 22.31590 113.92547 35 ft 8 kts 116°
2026-04-22 19:38 22.31567 113.92597 35 ft 8 kts 116°
2026-04-22 19:38 22.31536 113.92654 33 ft 9 kts 140°
2026-04-22 19:38 22.31474 113.92648 35 ft 10 kts 201°
2026-04-22 19:39 22.31440 113.92632 35 ft 0 kts 204°